Stündliche Wetter Aba-el-Baul

Heute, 22 Juni, Dienstag

Zeit Temperatur Niederschläge Wind Luftdruck Luftfeuchtigkeit
00:00 +33°C° 0 mm 4 m/S 746 mmHg 45%
01:00 +33°C° 0 mm 3 m/S 746 mmHg 41%
02:00 +33°C° 0 mm 3 m/S 746 mmHg 38%
03:00 +33°C° 0 mm 3 m/S 746 mmHg 35%
04:00 +34°C° 0 mm 3 m/S 746 mmHg 34%
05:00 +34°C° 0 mm 3 m/S 747 mmHg 33%
06:00 +34°C° 0 mm 3 m/S 747 mmHg 32%
07:00 +37°C° 0 mm 4 m/S 747 mmHg 26%
08:00 +41°C° 0 mm 5 m/S 747 mmHg 21%
09:00 +45°C° 0 mm 6 m/S 747 mmHg 15%
10:00 +46°C° 0 mm 6 m/S 747 mmHg 13%
11:00 +47°C° 0 mm 6 m/S 747 mmHg 11%
12:00 +49°C° 0 mm 6 m/S 746 mmHg 9%
13:00 +48°C° 0 mm 6 m/S 746 mmHg 9%
14:00 +48°C° 0 mm 6 m/S 746 mmHg 9%
15:00 +49°C° 0 mm 7 m/S 745 mmHg 9%
16:00 +46°C° 0 mm 6 m/S 745 mmHg 13%
17:00 +43°C° 0 mm 5 m/S 745 mmHg 18%
18:00 +41°C° 0 mm 5 m/S 745 mmHg 22%
19:00 +38°C° 0 mm 4 m/S 746 mmHg 29%
20:00 +36°C° 0 mm 3 m/S 746 mmHg 36%
21:00 +35°C° 0 mm 3 m/S 746 mmHg 43%
22:00 +34°C° 0 mm 3 m/S 746 mmHg 47%
23:00 +33°C° 0 mm 3 m/S 746 mmHg 51%

Morgen, 23 Juni, Mittwoch

Zeit Temperatur Niederschläge Wind Luftdruck Luftfeuchtigkeit
00:00 +33°C° 0 mm 4 m/S 746 mmHg 54%
01:00 +31°C° 0 mm 3 m/S 746 mmHg 58%
02:00 +30°C° 0 mm 2 m/S 746 mmHg 61%
03:00 +30°C° 0 mm 2 m/S 746 mmHg 65%
04:00 +30°C° 0 mm 1 m/S 746 mmHg 62%
05:00 +31°C° 0 mm 1 m/S 747 mmHg 59%
06:00 +31°C° 0 mm 1 m/S 747 mmHg 57%
07:00 +34°C° 0 mm 1 m/S 747 mmHg 46%
08:00 +36°C° 0 mm 1 m/S 747 mmHg 35%
09:00 +40°C° 0 mm 1 m/S 747 mmHg 25%
10:00 +42°C° 0 mm 1 m/S 747 mmHg 21%
11:00 +44°C° 0 mm 1 m/S 747 mmHg 18%
12:00 +46°C° 0 mm 2 m/S 747 mmHg 15%
13:00 +46°C° 0 mm 3 m/S 746 mmHg 16%
14:00 +47°C° 0 mm 4 m/S 746 mmHg 17%
15:00 +47°C° 0 mm 5 m/S 746 mmHg 17%
16:00 +45°C° 0 mm 5 m/S 746 mmHg 22%
17:00 +42°C° 0 mm 4 m/S 746 mmHg 26%
18:00 +40°C° 0 mm 3 m/S 746 mmHg 30%
19:00 +38°C° 0 mm 3 m/S 746 mmHg 34%
20:00 +37°C° 0 mm 2 m/S 747 mmHg 38%
21:00 +34°C° 0 mm 1 m/S 747 mmHg 42%
22:00 +35°C° 0 mm 2 m/S 747 mmHg 39%
23:00 +35°C° 0 mm 2 m/S 746 mmHg 37%

übermorgen, 24 Juni, Donnerstag

Zeit Temperatur Niederschläge Wind Luftdruck Luftfeuchtigkeit
00:00 +35°C° 0 mm 3 m/S 746 mmHg 35%
01:00 +34°C° 0 mm 3 m/S 746 mmHg 39%
02:00 +33°C° 0 mm 3 m/S 746 mmHg 42%
03:00 +31°C° 0 mm 3 m/S 746 mmHg 45%
04:00 +32°C° 0 mm 2 m/S 747 mmHg 44%
05:00 +32°C° 0 mm 1 m/S 747 mmHg 44%
06:00 +32°C° 0 mm 1 m/S 747 mmHg 44%
07:00 +33°C° 0 mm 0 m/S 748 mmHg 36%
08:00 +35°C° 0 mm 0 m/S 748 mmHg 28%
09:00 +38°C° 0 mm 0 m/S 748 mmHg 20%
10:00 +42°C° 0 mm 1 m/S 747 mmHg 17%
11:00 +44°C° 0 mm 1 m/S 747 mmHg 14%
12:00 +46°C° 0 mm 1 m/S 747 mmHg 11%
13:00 +47°C° 0 mm 2 m/S 746 mmHg 11%
14:00 +47°C° 0 mm 3 m/S 746 mmHg 10%
15:00 +49°C° 0 mm 4 m/S 745 mmHg 10%
16:00 +46°C° 0 mm 3 m/S 746 mmHg 14%
17:00 +44°C° 0 mm 3 m/S 746 mmHg 18%
18:00 +40°C° 0 mm 3 m/S 746 mmHg 22%
19:00 +39°C° 0 mm 3 m/S 746 mmHg 25%
20:00 +38°C° 0 mm 3 m/S 747 mmHg 27%
21:00 +36°C° 0 mm 3 m/S 747 mmHg 30%
22:00 +36°C° 0 mm 2 m/S 747 mmHg 29%
23:00 +35°C° 0 mm 2 m/S 746 mmHg 29%

25 Juni, Freitag

Zeit Temperatur Niederschläge Wind Luftdruck Luftfeuchtigkeit
00:00 +35°C° 0 mm 2 m/S 746 mmHg 28%
01:00 +34°C° 0 mm 2 m/S 746 mmHg 28%
02:00 +34°C° 0 mm 2 m/S 746 mmHg 28%
03:00 +32°C° 0 mm 2 m/S 746 mmHg 28%
04:00 +32°C° 0 mm 2 m/S 746 mmHg 29%
05:00 +32°C° 0 mm 1 m/S 746 mmHg 29%
06:00 +31°C° 0 mm 0 m/S 747 mmHg 30%
07:00 +35°C° 0 mm 1 m/S 747 mmHg 26%
08:00 +37°C° 0 mm 1 m/S 747 mmHg 21%
09:00 +41°C° 0 mm 1 m/S 747 mmHg 16%
10:00 +42°C° 0 mm 1 m/S 747 mmHg 14%
11:00 +45°C° 0 mm 2 m/S 746 mmHg 11%
12:00 +47°C° 0 mm 2 m/S 746 mmHg 8%
13:00 +48°C° 0 mm 2 m/S 745 mmHg 8%
14:00 +48°C° 0 mm 2 m/S 745 mmHg 8%
15:00 +48°C° 0 mm 2 m/S 744 mmHg 7%
16:00 +46°C° 0 mm 2 m/S 744 mmHg 10%
17:00 +43°C° 0 mm 2 m/S 744 mmHg 14%
18:00 +42°C° 0 mm 3 m/S 744 mmHg 17%
19:00 +40°C° 0 mm 2 m/S 745 mmHg 20%
20:00 +38°C° 0 mm 2 m/S 745 mmHg 24%
21:00 +36°C° 0 mm 2 m/S 745 mmHg 28%
22:00 +35°C° 0 mm 1 m/S 745 mmHg 26%
23:00 +34°C° 0 mm 1 m/S 744 mmHg 25%

26 Juni, Samstag

Zeit Temperatur Niederschläge Wind Luftdruck Luftfeuchtigkeit
00:00 +34°C° 0 mm 1 m/S 744 mmHg 23%
01:00 +34°C° 0 mm 1 m/S 744 mmHg 22%
02:00 +33°C° 0 mm 1 m/S 744 mmHg 22%
03:00 +33°C° 0 mm 1 m/S 744 mmHg 21%
04:00 +34°C° 0 mm 2 m/S 744 mmHg 24%
05:00 +34°C° 0 mm 2 m/S 745 mmHg 26%
06:00 +34°C° 0 mm 2 m/S 745 mmHg 29%
07:00 +37°C° 0 mm 2 m/S 745 mmHg 23%
08:00 +40°C° 0 mm 1 m/S 745 mmHg 17%
09:00 +42°C° 0 mm 1 m/S 745 mmHg 11%
10:00 +45°C° 0 mm 2 m/S 745 mmHg 10%
11:00 +47°C° 0 mm 2 m/S 745 mmHg 9%
12:00 +48°C° 0 mm 3 m/S 744 mmHg 7%
13:00 +50°C° 0 mm 3 m/S 744 mmHg 7%
14:00 +50°C° 0 mm 3 m/S 744 mmHg 7%
15:00 +50°C° 0 mm 3 m/S 743 mmHg 8%
16:00 +47°C° 0 mm 3 m/S 743 mmHg 12%
17:00 +44°C° 0 mm 3 m/S 743 mmHg 17%
18:00 +42°C° 0 mm 3 m/S 743 mmHg 22%
19:00 +39°C° 0 mm 3 m/S 744 mmHg 26%
20:00 +38°C° 0 mm 3 m/S 744 mmHg 31%
21:00 +36°C° 0 mm 2 m/S 744 mmHg 36%
22:00 +36°C° 0 mm 2 m/S 744 mmHg 33%
23:00 +36°C° 0 mm 2 m/S 744 mmHg 30%

27 Juni, Sonntag

Zeit Temperatur Niederschläge Wind Luftdruck Luftfeuchtigkeit
00:00 +35°C° 0 mm 2 m/S 744 mmHg 28%
01:00 +34°C° 0 mm 2 m/S 744 mmHg 36%
02:00 +34°C° 0 mm 3 m/S 744 mmHg 44%
03:00 +33°C° 0 mm 3 m/S 745 mmHg 52%
04:00 +33°C° 0 mm 3 m/S 745 mmHg 53%
05:00 +33°C° 0 mm 3 m/S 745 mmHg 54%
06:00 +33°C° 0 mm 3 m/S 746 mmHg 55%
07:00 +37°C° 0 mm 3 m/S 746 mmHg 42%
08:00 +41°C° 0 mm 4 m/S 746 mmHg 29%
09:00 +45°C° 0 mm 4 m/S 746 mmHg 17%
10:00 +46°C° 0 mm 3 m/S 746 mmHg 14%
11:00 +47°C° 0 mm 2 m/S 746 mmHg 12%
12:00 +48°C° 0 mm 2 m/S 746 mmHg 10%
13:00 +49°C° 0 mm 2 m/S 745 mmHg 11%
14:00 +50°C° 0 mm 3 m/S 745 mmHg 11%
15:00 +50°C° 0 mm 3 m/S 744 mmHg 11%
16:00 +48°C° 0 mm 4 m/S 745 mmHg 17%
17:00 +44°C° 0 mm 4 m/S 745 mmHg 22%
18:00 +41°C° 0 mm 4 m/S 745 mmHg 28%
19:00 +40°C° 0 mm 4 m/S 745 mmHg 32%
20:00 +37°C° 0 mm 3 m/S 745 mmHg 36%
21:00 +36°C° 0 mm 2 m/S 746 mmHg 40%
22:00 +35°C° 0 mm 3 m/S 746 mmHg 41%
23:00 +35°C° 0 mm 3 m/S 746 mmHg 42%
Mehr zeigen

Wir brauchen deine Erlaubnis

Meteoprog und unser Service Anbieter werden persönliche Daten aufbewahren, so wie Cookies, Geräte Bezeichnung oder ähnliche Technologien von deinem Gerät und Prozess, so wie Persönliche Daten Inhalte und Werbungen, genauso wie social Media und den Verkehr zu analysieren.

  • Aufbewahrung und/oder Zugang zu deiner Geräte Informationen.

    Cookies, Geräte Bezeichnung oder andere Informationen, können aufbewahrt oder Zugang zu deinem Gerät erhalten, für den Grund, der oben angegeben wird.

  • Personalisierte Werbung und Inhalte, Messungen, Einblick in das Publikum und Produkt Entwicklung.

    Werbungen und Inhalte können personalisiert werden, basierend auf ein Profil. Mehr Daten können besser personalisierte Werbungen und Inhalte hinzufügen. Werbung und Inhalte können gezeigt und gemessen werden. Einblicke über das Publikum, welche die Werbung gesehen haben und den Inhalt, können abgeleitet werden. So wie Daten können genutzt werden, um es zu verbessern oder die Benutzer Erfahrung zu verbessern das System und die Software.

Wenn du “Ich stimme zu” klickst, erlaubst du uns, die Cookies zu benutzen die Geräte Bezeichnung, den Web oder ähnliche Technologien zu benutzen. Deine Settings, können in deinem Gerät bei deinem Browser geändert werden.

Für den bestimmten Zweck, berechtigten Interessen beruhen darauf, mehr als auf den Inhalt. Du kannst mehr darüber in unseren Privaten und Cookie Politik lesen.